Weather History for Estherville, IA

Change the Weather History Date:

Friday, March 25, 2011

  Actual Average Record
Temperature  
Mean Temperature 32 °F 37 °F  
Max Temperature 35 °F 46 °F 82 °F (1967)
Min Temperature 28 °F 28 °F -2 °F (1974)
Degree Days  
Heating Degree Days 33 28  
Month to date heating degree days 887 841  
Since 1 July heating degree days 6720 6756  
Cooling Degree Days 0 0  
Month to date cooling degree days 0 0  
Year to date cooling degree days 0 0  
Moisture  
Dew Point 25 °F    
Average Humidity 75    
Maximum Humidity 85    
Minimum Humidity 64    
Precipitation  
Precipitation T in 0.07 in 0.60 in (1987)
Month to date precipitation 0.72 1.13  
Year to date precipitation 1.27  
Sea Level Pressure  
Sea Level Pressure 30.11 in    
Wind  
Wind Speed 10 mph (ENE)    
Max Wind Speed 22 mph    
Max Gust Speed 25 mph    
Visibility 8 miles    
Events Snow    
T = Trace of Precipitation, MM = Missing Value Source: NWS Daily Summary

Daily Weather History Graph

Daily Weather History Graph

Search for Another Location

Airport:

Trip Planner

Search our weather history database for the weather conditions in past years. The results will help you decide how hot, cold, wet, or windy it might be!

Date:

Astronomy

Mar. 25, 2011 Rise Set
Actual Time 7:13 AM CDT 7:37 PM CDT
Civil Twilight 6:45 AM CDT 8:05 PM CDT
Nautical Twilight 6:11 AM CDT 8:39 PM CDT
Astronomical Twilight 5:36 AM CDT 9:14 PM CDT
Moon 2:02 AM CDT (3/25) 11:04 AM CDT (3/25)
Length of Visible Light 13h 20m
Length of Day
12h 23m
Waning Gibbous, 58% of the Moon is Illuminated
Mar 25
Waning Gibbous
Mar 26
Last Quarter
Apr 3
New
Apr 11
First Quarter
Apr 17
Full

Hourly Weather History & Observations

Time (CDT) Temp. Windchill Dew Point Humidity Pressure Visibility Wind Dir Wind Speed Gust Speed Precip Events Conditions
12:31 AM 28.4 °F 23.3 °F 24.8 °F 86% 30.11 in 10.0 mi East 4.6 mph - N/A   Scattered Clouds
12:52 AM 28.9 °F 20.4 °F 25.0 °F 85% 30.14 in 10.0 mi ENE 9.2 mph - N/A   Scattered Clouds
1:52 AM 28.9 °F 18.2 °F 25.0 °F 85% 30.13 in 10.0 mi East 13.8 mph - N/A   Overcast
2:52 AM 28.0 °F 18.6 °F 24.1 °F 85% 30.11 in 10.0 mi East 10.4 mph - N/A   Overcast
3:52 AM 28.0 °F 19.3 °F 24.1 °F 85% 30.11 in 10.0 mi East 9.2 mph - N/A   Overcast
4:52 AM 28.0 °F 19.3 °F 24.1 °F 85% 30.10 in 10.0 mi ENE 9.2 mph - N/A   Overcast
5:52 AM 28.0 °F 20.0 °F 24.1 °F 85% 30.11 in 10.0 mi ENE 8.1 mph - N/A   Overcast
6:52 AM 28.0 °F 19.3 °F 24.1 °F 85% 30.12 in 10.0 mi ENE 9.2 mph - N/A   Overcast
7:24 AM 28.4 °F 20.4 °F 24.8 °F 86% 30.07 in 3.0 mi ENE 8.1 mph - 0.00 in Snow Light Snow
7:29 AM 28.4 °F 20.4 °F 24.8 °F 86% 30.07 in 1.8 mi ENE 8.1 mph - 0.00 in Snow Light Snow
7:52 AM 28.0 °F 20.0 °F 25.0 °F 88% 30.13 in 1.0 mi ENE 8.1 mph - 0.00 in Snow Light Snow
8:07 AM 28.4 °F 21.2 °F 24.8 °F 86% 30.08 in 1.8 mi ENE 6.9 mph - 0.00 in Snow Light Snow
8:15 AM 28.4 °F 22.2 °F 24.8 °F 86% 30.08 in 2.5 mi East 5.8 mph - 0.00 in Snow Light Snow
8:23 AM 28.4 °F 22.2 °F 24.8 °F 86% 30.08 in 3.0 mi East 5.8 mph - 0.00 in Snow Light Snow
8:42 AM 28.4 °F 21.2 °F 24.8 °F 86% 30.08 in 7.0 mi East 6.9 mph - 0.00 in   Overcast
8:52 AM 28.9 °F 21.1 °F 25.0 °F 85% 30.13 in 9.0 mi ENE 8.1 mph - 0.00 in   Overcast
9:39 AM 30.2 °F 21.9 °F 24.8 °F 80% 30.08 in 10.0 mi East 9.2 mph - N/A   Overcast
9:48 AM 30.2 °F 21.9 °F 24.8 °F 80% 30.08 in 10.0 mi ENE 9.2 mph - N/A   Overcast
9:52 AM 30.0 °F 21.1 °F 25.0 °F 82% 30.13 in 10.0 mi ENE 10.4 mph - N/A   Overcast
10:02 AM 30.2 °F 22.6 °F 24.8 °F 80% 30.08 in 10.0 mi ENE 8.1 mph - N/A   Overcast
10:52 AM 30.9 °F 22.8 °F 25.0 °F 79% 30.13 in 10.0 mi East 9.2 mph - N/A   Overcast
11:52 AM 33.1 °F 24.9 °F 25.0 °F 72% 30.12 in 10.0 mi East 10.4 mph - N/A   Overcast
12:48 PM 33.8 °F 27.0 °F 24.8 °F 70% 30.08 in 10.0 mi ENE 8.1 mph - N/A   Overcast
12:52 PM 33.1 °F 26.1 °F 24.1 °F 70% 30.12 in 10.0 mi East 8.1 mph - N/A   Overcast
1:52 PM 34.0 °F 28.0 °F 24.1 °F 67% 30.12 in 10.0 mi ENE 6.9 mph - N/A   Overcast
2:52 PM 34.0 °F 27.2 °F 25.0 °F 70% 30.10 in 10.0 mi ENE 8.1 mph - N/A   Overcast
3:52 PM 34.0 °F 28.0 °F 25.0 °F 70% 30.10 in 10.0 mi ENE 6.9 mph - N/A   Overcast
4:52 PM 34.0 °F 28.0 °F 24.1 °F 67% 30.10 in 10.0 mi ENE 6.9 mph - N/A   Overcast
5:52 PM 35.1 °F 30.1 °F 24.1 °F 64% 30.10 in 10.0 mi NE 5.8 mph - N/A   Overcast
6:52 PM 34.0 °F 27.2 °F 25.0 °F 70% 30.11 in 10.0 mi NNE 8.1 mph - N/A   Overcast
7:52 PM 33.1 °F 26.9 °F 26.1 °F 75% 30.11 in 10.0 mi NE 6.9 mph - N/A   Mostly Cloudy
8:52 PM 32.0 °F 23.6 °F 26.1 °F 79% 30.13 in 10.0 mi NE 10.4 mph - N/A   Overcast
9:52 PM 32.0 °F 23.0 °F 25.0 °F 75% 30.14 in 10.0 mi ENE 11.5 mph - N/A   Overcast
10:52 PM 30.9 °F 20.7 °F 24.1 °F 76% 30.15 in 10.0 mi ENE 13.8 mph - N/A   Overcast